GFSFLT2_925_temp_204.txt.gz
Temp
5 4 3 3 3 3 2 3 2 1 1 1 1 -0 -0 -0 -0 -0 -0 -0 -0 -0 -0 0 1 1 2
3 3 3 2 2 2 2 2 2 2 1 -0 0 -1 -1 -0 -1 -1 -1 -1 -2 -1 -1 -1 0 1 1
2 2 2 1 1 1 2 2 1 1 0 0 -1 -1 -0 -0 -1 -1 -2 -2 -2 -2 -1 -1 -0 -0 -0
2 1 1 0 1 1 1 1 1 0 -0 -0 -0 -1 -1 -1 -1 -1 -2 -2 -2 -2 -1 -1 -1 -1 -1
1 1 0 -0 0 -0 -0 -0 0 -0 -0 0 -0 -1 -1 -1 -1 -2 -2 -2 -2 -2 -2 -2 -2 -2 -2
1 0 0 0 -0 -1 -1 -1 -2 -1 -1 -1 -1 -1 -2 -2 -2 -2 -2 -2 -3 -3 -2 -2 -2 -2 -2
2 1 -0 -1 -1 -2 -2 -2 -2 -1 -2 -2 -1 -2 -2 -2 -3 -3 -2 -3 -3 -3 -3 -3 -3 -2 -3
1 0 0 -0 -1 -2 -2 -3 -2 -2 -2 -3 -2 -2 -2 -2 -3 -3 -3 -4 -4 -4 -4 -3 -3 -3 -3
0 -0 -1 -1 -2 -2 -3 -3 -4 -3 -3 -3 -4 -4 -3 -3 -3 -3 -3 -4 -5 -4 -4 -4 -4 -4 -4
-0 -1 -2 -2 -2 -2 -3 -4 -5 -5 -4 -4 -5 -6 -6 -4 -4 -4 -4 -5 -5 -5 -5 -5 -5 -5 -4
-1 -2 -2 -2 -3 -3 -4 -4 -5 -5 -4 -5 -6 -6 -6 -6 -6 -6 -6 -6 -6 -5 -5 -5 -6 -5 -5
-1 -2 -2 -2 -3 -3 -4 -4 -5 -5 -5 -6 -6 -6 -7 -7 -7 -6 -7 -6 -7 -6 -5 -5 -6 -6 -6
-2 -3 -3 -3 -3 -4 -4 -5 -5 -6 -6 -6 -6 -6 -7 -7 -7 -8 -7 -7 -7 -7 -7 -7 -7 -7 -7
-2 -2 -3 -3 -4 -4 -5 -5 -6 -6 -6 -6 -6 -6 -6 -7 -7 -7 -7 -8 -8 -8 -7 -7 -7 -7 -7
-2 -2 -3 -4 -5 -5 -6 -6 -7 -7 -7 -7 -7 -7 -7 -7 -7 -7 -8 -8 -8 -8 -8 -8 -7 -7 -7
-2 -3 -3 -5 -5 -6 -6 -7 -7 -7 -7 -7 -7 -8 -8 -8 -8 -8 -8 -8 -7 -8 -8 -8 -8 -8 -8
-2 -3 -4 -5 -6 -6 -7 -7 -7 -7 -8 -8 -8 -8 -8 -8 -7 -7 -7 -7 -8 -8 -9 -9 -9 -8 -8

GFSFLT2_925_temp_210.txt.gz
Temp
4 5 5 5 4 4 4 4 3 3 2 1 1 1 0 0 0 0 0 0 0 0 0 1 1 1 2
3 4 3 3 4 3 2 2 2 2 2 0 0 0 -0 -0 0 0 -0 -1 -1 -1 -1 -0 0 1 1
2 2 2 2 1 1 1 1 2 2 1 0 0 -0 -0 -0 -0 -0 -0 -1 -1 -1 -1 -1 -1 -0 -0
2 1 1 0 1 1 1 1 1 1 1 0 0 0 0 -0 -1 -1 -1 -1 -1 -1 -1 -1 -1 -1 -0
1 0 -0 -0 1 1 1 1 1 0 0 0 0 1 0 -0 -0 -1 -2 -2 -2 -2 -2 -2 -1 -1 -1
1 0 -0 1 0 0 0 -0 -1 -1 -1 0 -0 -0 -1 -1 -1 -2 -2 -2 -2 -2 -2 -2 -2 -2 -2
3 2 1 1 1 0 0 -0 -1 -1 -1 -1 -1 -1 -1 -1 -1 -2 -3 -2 -3 -3 -3 -3 -3 -2 -2
4 3 3 2 1 1 0 -0 -1 -2 -2 -2 -1 -1 -1 -2 -2 -3 -3 -3 -4 -4 -4 -4 -4 -4 -3
2 2 1 1 1 0 -1 -0 -2 -2 -3 -3 -3 -3 -2 -2 -3 -3 -3 -3 -3 -4 -4 -5 -5 -4 -4
0 -0 -0 -0 -0 -0 -1 -1 -3 -4 -3 -3 -4 -4 -4 -3 -3 -3 -3 -3 -4 -4 -6 -6 -6 -5 -5
0 -0 -1 -1 -1 -2 -2 -2 -3 -3 -4 -4 -5 -5 -6 -5 -5 -5 -6 -5 -5 -4 -5 -6 -6 -6 -6
-1 -1 -1 -1 -2 -2 -2 -3 -3 -3 -4 -5 -6 -6 -6 -7 -7 -6 -6 -6 -6 -6 -6 -5 -6 -6 -7
-1 -1 -1 -1 -2 -2 -3 -3 -3 -4 -4 -5 -6 -6 -7 -7 -7 -7 -7 -6 -7 -7 -6 -7 -7 -7 -8
-1 -1 -1 -1 -2 -3 -3 -3 -4 -4 -5 -5 -6 -7 -7 -7 -8 -8 -8 -8 -7 -7 -7 -8 -8 -8 -8
-0 -0 -1 -2 -2 -3 -4 -5 -6 -6 -6 -7 -7 -7 -7 -8 -8 -9 -9 -8 -8 -7 -8 -8 -8 -8 -8
-0 -1 -1 -2 -3 -4 -4 -5 -5 -6 -7 -7 -7 -8 -8 -8 -7 -8 -8 -8 -8 -8 -9 -9 -9 -8 -8
-0 -1 -2 -2 -3 -4 -4 -5 -5 -6 -6 -6 -7 -8 -10 -9 -8 -8 -8 -8 -9 -9 -9 -9 -9 -9 -9

GFSFLT2_925_temp_213.txt.gz
Temp
3 4 4 4 3 3 4 4 4 3 3 3 3 2 2 2 1 1 1 1 1 1 1 1 1 1 2
1 2 2 2 3 3 3 3 3 3 3 2 2 1 1 1 0 1 1 0 -0 -0 -0 0 0 1 1
1 2 1 2 2 2 2 2 2 2 2 2 1 0 -0 -0 0 0 0 -0 -1 -1 -1 -0 -0 -0 0
1 1 1 0 1 1 1 2 1 1 1 1 0 0 0 -0 -0 -0 -1 -1 -1 -1 -1 -1 -1 -1 -0
-0 -0 -0 -1 0 1 1 1 0 1 1 0 0 0 1 0 -0 -0 -0 -1 -2 -1 -1 -2 -1 -1 -1
1 0 0 0 1 1 0 -1 -1 0 -0 0 0 0 0 -0 -0 -1 -2 -2 -2 -2 -2 -2 -2 -2 -2
4 1 1 2 2 0 0 0 0 -1 -1 -1 -1 -0 -0 -0 -1 -1 -1 -2 -2 -3 -3 -3 -3 -3 -3
4 3 3 3 2 2 1 -0 -1 -1 -2 -2 -2 -1 -0 -1 -1 -2 -3 -2 -3 -3 -3 -3 -3 -4 -3
3 3 3 2 1 2 1 -0 -2 -2 -2 -2 -2 -2 -1 -2 -2 -3 -3 -3 -4 -4 -4 -4 -4 -4 -4
1 1 1 0 1 1 0 1 -1 -3 -2 -3 -4 -4 -3 -2 -2 -2 -2 -3 -3 -3 -4 -5 -5 -5 -6
0 -0 -0 -0 -0 -0 -0 -1 -1 -2 -2 -3 -4 -5 -5 -4 -3 -2 -3 -3 -4 -3 -4 -5 -6 -6 -6
-0 -1 -1 -1 -1 -1 -1 -2 -2 -2 -3 -4 -5 -5 -6 -6 -7 -4 -5 -5 -5 -5 -6 -6 -6 -6 -6
-0 -0 -1 -1 -1 -2 -2 -3 -3 -3 -4 -5 -5 -6 -7 -8 -7 -7 -7 -6 -6 -7 -6 -7 -7 -7 -7
-0 -1 -1 -1 -2 -2 -3 -3 -3 -3 -4 -5 -6 -7 -7 -7 -8 -8 -8 -8 -7 -8 -8 -8 -8 -8 -8
-0 -1 -1 -2 -2 -3 -3 -4 -4 -4 -5 -5 -6 -7 -7 -7 -9 -8 -8 -7 -7 -7 -7 -8 -8 -8 -8
-0 -1 -1 -1 -2 -3 -3 -4 -5 -4 -5 -5 -6 -7 -7 -7 -7 -7 -7 -8 -8 -8 -8 -9 -9 -8 -8
-1 -1 -1 -2 -3 -3 -4 -5 -5 -5 -4 -5 -6 -7 -12 -9 -8 -7 -8 -8 -8 -9 -9 -9 -10 -9 -8

GFSFLT2_925_temp_219.txt.gz
Temp
6 6 5 5 5 5 6 6 5 4 5 5 5 5 5 6 5 4 3 3 3 3 3 3 3 3 3
3 3 4 4 5 5 4 4 4 3 4 3 3 4 4 4 3 2 2 2 2 2 2 1 2 2 2
2 2 2 2 3 3 3 3 2 2 1 1 2 2 2 2 2 1 1 1 1 1 1 0 0 1 1
3 1 1 1 2 1 0 0 0 1 2 2 2 2 1 1 1 0 0 0 0 -0 -0 -0 -0 -0 -0
1 0 -0 -1 -0 -1 -1 -0 -0 0 -0 2 1 1 1 1 1 1 1 0 -0 -1 -0 -0 -1 -1 -1
1 1 -0 -0 -0 -0 -1 -1 -1 -1 0 0 1 1 1 1 1 1 0 -0 -1 -1 -1 -1 -1 -1 -1
3 2 1 2 2 0 -0 -1 -1 0 -1 -0 1 1 1 1 1 0 0 -1 -2 -2 -2 -1 -2 -2 -2
4 4 4 4 2 2 1 1 -0 -0 -0 -0 -0 0 1 1 1 0 -0 -1 -2 -2 -2 -2 -3 -2 -2
4 3 3 2 2 3 1 0 -1 -2 -1 -1 -1 -0 0 0 0 -0 -0 -1 -2 -2 -3 -3 -3 -3 -3
0 1 1 1 2 2 2 1 -1 -1 -1 -1 -2 -1 -1 -0 -0 -0 -1 -1 -2 -2 -3 -4 -4 -4 -4
0 0 1 1 1 1 1 1 1 -0 -0 -1 -2 -2 -2 -2 -1 -0 -1 -2 -2 -2 -3 -3 -4 -5 -5
1 0 0 0 0 0 0 0 0 0 -0 -1 -2 -3 -4 -5 -4 -3 -3 -3 -3 -4 -5 -4 -4 -5 -6
0 -0 -0 -0 -0 -0 -0 -0 -1 -1 -2 -2 -3 -4 -5 -5 -5 -5 -6 -5 -5 -5 -5 -6 -7 -6 -7
0 -0 -0 -0 -1 -1 -1 -2 -2 -2 -2 -3 -3 -4 -5 -5 -6 -6 -6 -7 -5 -6 -7 -8 -8 -8 -8
-0 -0 -1 -1 -1 -2 -2 -3 -3 -3 -3 -3 -4 -5 -5 -6 -7 -7 -7 -7 -6 -7 -8 -8 -7 -7 -7
-1 -1 -1 -2 -2 -2 -3 -4 -4 -4 -4 -4 -5 -6 -6 -5 -5 -5 -6 -7 -7 -7 -8 -8 -8 -6 -6
-2 -2 -2 -2 -3 -3 -4 -4 -5 -5 -5 -5 -6 -8 -6 -5 -5 -6 -7 -7 -7 -7 -8 -8 -8 -8 -7

GFSFLT2_925_temp_222.txt.gz
Temp
7 5 6 6 7 7 7 7 8 8 8 7 7 6 6 6 6 5 5 5 4 4 4 4 4 4 4
4 4 4 5 6 6 6 6 6 6 6 5 5 5 5 5 4 4 4 3 3 3 3 3 3 3 3
4 3 3 4 4 4 4 4 4 3 3 3 3 3 2 2 3 3 2 2 2 1 1 1 1 1 2
3 2 2 2 3 2 1 2 2 2 2 2 1 1 2 1 1 1 1 1 1 1 1 0 0 0 0
2 1 0 -0 1 1 -0 -0 -0 0 0 0 0 1 1 1 1 1 1 1 0 0 0 0 0 -0 0
2 2 1 1 0 -0 -1 -2 -1 -1 -1 -1 -1 0 1 1 1 2 1 1 -0 -0 -0 -0 -0 -1 -0
3 2 1 1 0 -1 -1 -0 -1 -1 -1 -1 -1 1 0 1 1 1 1 0 -1 -1 -1 -1 -1 -1 -1
3 3 3 2 1 1 1 -0 -1 -2 -2 2 -0 0 -0 0 1 1 1 0 -0 -2 -2 -1 -1 -2 -2
3 4 3 2 2 2 -0 -0 0 -0 -0 0 -0 1 -0 -0 -0 1 1 0 -0 -1 -2 -2 -2 -2 -2
1 1 1 1 1 1 1 1 1 0 -1 -0 -1 -1 1 -1 -1 -0 -1 -0 -0 -1 -1 -2 -3 -3 -3
-0 -0 0 1 1 1 1 1 1 -0 -0 -1 -1 -1 -1 -1 -1 -0 -1 -2 -2 -3 -3 -4 -3 -4 -4
1 0 -1 -1 0 1 1 1 1 1 0 -0 -1 -2 -3 -3 -2 -2 -2 -3 -3 -4 -4 -4 -4 -5 -5
-1 -1 -0 -0 -0 -0 -0 -0 -1 -1 -1 -1 -2 -2 -3 -4 -3 -3 -3 -3 -4 -4 -4 -5 -5 -5 -6
-0 -0 -0 -1 -1 -1 -1 -1 -1 -2 -1 -2 -2 -3 -5 -4 -4 -4 -4 -4 -4 -4 -5 -5 -6 -6 -6
-1 -1 -1 -1 -1 -1 -2 -2 -3 -3 -3 -4 -3 -4 -5 -5 -5 -4 -4 -4 -4 -4 -5 -6 -6 -6 -6
-1 -1 -2 -2 -2 -2 -2 -3 -3 -3 -3 -4 -5 -5 -5 -5 -4 -5 -5 -5 -5 -5 -6 -6 -6 -6 -6
-2 -2 -2 -3 -3 -4 -4 -4 -4 -4 -4 -5 -5 -6 -5 -4 -3 -5 -6 -6 -6 -6 -6 -6 -6 -6 -6

GFSFLT2_925_temp_225.txt.gz
Temp
9 7 6 6 7 7 7 8 8 9 9 9 9 9 9 8 8 7 7 6 5 5 5 5 5 5 5
8 7 5 5 6 6 6 7 7 6 7 7 7 6 6 6 6 6 5 5 4 4 3 3 3 4 4
6 5 4 4 4 5 5 5 5 4 4 5 5 4 4 4 4 4 4 4 3 3 2 2 2 2 2
5 3 3 3 3 3 3 3 3 3 3 3 3 3 2 2 3 3 3 3 2 2 1 1 1 1 1
3 2 2 1 1 2 1 1 1 1 2 1 2 2 2 1 1 1 2 2 1 1 1 1 1 0 0
3 3 2 1 1 1 0 -0 -0 -0 0 0 1 1 0 -0 1 1 1 1 1 0 0 0 0 0 0
4 3 2 2 1 -0 0 0 -1 -1 -0 -1 -0 0 0 0 1 1 1 1 1 -0 -1 -1 -1 -1 -1
3 2 2 1 1 1 0 -0 -1 -1 -1 1 -0 0 1 1 1 1 1 1 1 0 -1 -1 -1 -1 -1
3 2 2 1 2 1 -0 -0 -1 -1 -0 1 0 1 0 0 0 1 1 1 1 0 -1 -1 -2 -2 -2
0 0 0 -0 0 1 0 1 1 -0 0 0 0 0 0 0 0 1 1 1 1 0 -1 -1 -2 -2 -2
0 0 0 1 1 1 1 1 1 -0 0 0 -1 -0 -0 -0 -0 -0 -0 -1 -1 -1 -2 -2 -3 -3 -3
1 0 0 0 0 1 1 1 1 1 0 0 0 -1 -1 -2 -1 -1 -1 -1 -2 -2 -3 -3 -3 -3 -4
-0 -0 -0 -0 -0 -0 -0 0 0 0 -0 -0 -1 -1 -2 -3 -3 -2 -3 -3 -3 -3 -3 -3 -4 -4 -5
-0 -0 -1 -1 -0 -1 -1 -1 -1 -1 -1 -1 -2 -3 -3 -4 -4 -4 -4 -4 -3 -4 -4 -4 -5 -5 -5
-1 -1 -1 -1 -2 -2 -2 -2 -3 -3 -3 -3 -3 -4 -4 -5 -5 -5 -4 -4 -4 -4 -4 -4 -5 -5 -5
-2 -2 -3 -3 -3 -3 -3 -4 -4 -3 -3 -3 -4 -5 -5 -4 -4 -4 -4 -4 -4 -5 -5 -5 -6 -6 -5
-4 -4 -4 -4 -4 -4 -4 -4 -4 -4 -4 -4 -5 -5 -6 -6 -4 -4 -4 -5 -5 -6 -6 -6 -6 -6 -6

GFSFLT2_925_temp_231.txt.gz
Temp
9 9 9 9 8 8 8 9 9 8 9 10 10 10 11 11 10 10 10 10 10 9 8 7 7 7 7
8 8 8 9 9 7 6 7 9 8 7 9 10 9 9 9 9 8 8 8 8 8 6 5 5 5 5
7 8 7 7 6 5 5 6 6 6 6 5 7 8 8 7 7 5 6 6 5 5 5 4 4 4 4
7 7 5 5 4 4 4 4 4 4 4 4 3 4 4 4 5 5 4 5 3 3 3 3 2 3 3
5 4 3 3 3 3 2 2 1 1 2 2 2 2 2 2 3 3 3 2 2 2 2 1 2 2 2
4 3 3 3 2 2 1 0 0 1 1 1 1 1 1 1 1 1 1 1 1 -0 0 1 0 1 1
3 2 2 1 1 0 0 0 0 -0 -0 -0 -0 -0 0 1 1 0 1 0 1 1 1 0 -0 -0 0
2 1 1 1 1 1 1 -0 -1 -1 -0 -1 -1 -1 -1 0 1 1 1 1 1 1 0 -0 -0 0 0
1 1 1 1 1 1 0 0 -1 -0 -0 0 0 0 1 1 1 0 1 1 1 1 1 0 -1 -0 -0
1 1 1 1 1 1 1 1 0 -0 -0 0 0 0 0 0 0 1 1 1 1 1 0 0 -1 -1 -1
1 0 1 1 0 1 1 1 1 -1 -1 -0 -0 -0 -0 -0 0 0 0 0 0 -0 -1 -1 -1 -2 -2
0 -0 -0 -0 -1 -0 -0 -0 -0 -1 -1 -0 -1 -1 -1 -1 -0 -0 -0 -1 -1 -2 -2 -2 -2 -3 -3
-1 -2 -2 -2 -1 -1 -1 -1 -1 -2 -2 -2 -2 -3 -3 -3 -3 -3 -3 -2 -3 -3 -3 -4 -4 -4 -4
-3 -3 -3 -3 -3 -3 -3 -2 -3 -3 -4 -4 -4 -4 -5 -5 -5 -5 -5 -5 -4 -4 -4 -4 -4 -4 -4
-4 -5 -5 -5 -5 -5 -5 -5 -5 -5 -5 -4 -4 -4 -4 -4 -5 -5 -5 -5 -5 -5 -5 -6 -5 -5 -5
-6 -6 -6 -5 -6 -5 -5 -6 -6 -6 -6 -6 -6 -6 -6 -5 -5 -5 -5 -6 -6 -6 -6 -7 -6 -4 -5
-7 -7 -7 -7 -7 -7 -7 -7 -7 -7 -7 -7 -7 -7 -12 -13 -7 -6 -6 -6 -7 -7 -6 -7 -8 -6 -6

GFSFLT2_925_temp_237.txt.gz
Temp
8 8 9 8 8 8 8 7 8 7 7 7 7 8 8 8 9 10 11 11 11 11 12 12 11 10 10
7 8 8 8 6 6 6 6 6 6 6 6 5 6 6 7 8 7 9 9 10 10 10 11 10 10 10
7 7 7 7 6 6 6 5 4 5 5 5 4 4 4 5 7 6 5 7 8 9 9 10 10 9 9
6 6 5 5 5 4 4 3 3 3 3 3 3 3 3 3 4 4 3 4 4 5 3 7 6 6 4
5 4 3 3 3 2 2 2 2 2 2 3 2 2 2 2 1 2 2 3 2 2 2 3 2 3 3
2 2 1 1 1 1 1 1 1 1 1 1 1 1 1 0 0 0 1 1 1 1 1 1 1 0 -0
0 0 0 0 1 1 0 0 -1 -1 -0 -1 -0 -0 -0 -0 -0 -0 0 -0 -1 -0 -1 -1 -1 -1 -1
1 0 0 1 1 1 1 -0 -1 -1 -0 -0 -0 -0 0 0 0 0 0 -0 -0 -1 -1 -1 -1 -1 -1
1 1 1 1 2 2 1 1 -1 -1 -1 -1 -0 0 0 -0 -0 -0 -1 -1 -1 -1 -1 -1 -1 -1 -1
1 1 1 1 1 1 1 0 -1 -1 -2 -1 -1 -1 0 -0 -0 -1 -1 -1 -1 -2 -2 -2 -2 -1 -1
-0 -1 -1 -1 -1 -1 -1 -0 -1 -3 -3 -1 -1 -1 -1 -1 -1 -2 -2 -2 -2 -2 -2 -2 -2 -2 -2
-1 -2 -3 -3 -3 -3 -3 -3 -3 -4 -3 -3 -4 -4 -4 -3 -3 -3 -3 -3 -3 -4 -4 -3 -3 -3 -3
-5 -5 -5 -5 -4 -4 -4 -4 -4 -4 -4 -5 -5 -5 -5 -5 -5 -5 -5 -4 -5 -5 -5 -4 -4 -4 -4
-6 -6 -6 -6 -6 -6 -5 -5 -5 -5 -6 -6 -6 -6 -5 -5 -6 -6 -6 -6 -5 -5 -6 -5 -4 -4 -4
-6 -6 -6 -7 -7 -7 -7 -7 -7 -7 -7 -6 -5 -5 -5 -6 -6 -6 -6 -5 -6 -6 -6 -6 -4 -4 -4
-8 -8 -7 -7 -7 -7 -7 -8 -8 -8 -8 -8 -7 -6 -5 -5 -7 -6 -6 -6 -6 -6 -6 -8 -6 -4 -4
-8 -8 -8 -8 -8 -8 -8 -8 -8 -8 -8 -8 -8 -8 -12 -15 -7 -7 -7 -6 -7 -6 -6 -7 -8 -4 -5

GFSFLT2_925_temp_243.txt.gz
Temp
7 7 7 7 7 7 6 5 5 5 6 5 6 5 5 5 5 5 5 5 7 6 7 7 7 8 10
7 6 6 6 6 6 5 5 4 4 4 4 4 4 3 3 3 3 4 4 4 5 5 5 5 5 7
6 6 6 5 5 4 4 3 3 3 3 3 3 3 2 2 2 2 2 2 3 3 4 4 3 3 4
4 5 4 4 3 3 2 2 2 2 2 2 2 2 1 1 1 1 1 1 1 1 1 2 3 2 2
3 3 2 2 1 1 2 1 1 1 1 1 1 1 0 -0 -0 -0 0 0 0 1 1 0 0 0 1
1 1 -0 0 1 1 1 1 1 0 0 -0 0 0 -0 -1 -1 -0 0 -0 -0 -0 -0 -0 -0 -0 0
-0 -0 -1 0 1 0 0 -0 -1 -1 -1 -0 0 -0 -0 -1 -1 -1 -1 -0 -0 -0 -0 -0 -0 -0 -0
-1 -2 -0 1 1 1 1 0 -1 -1 -0 0 -0 -1 -1 -1 -1 -1 -1 -1 -1 -1 -1 -1 -1 -0 -0
0 1 1 1 1 1 0 -1 -0 -2 -2 -2 -1 -1 -1 -1 -1 -1 -1 -2 -1 -1 -2 -2 -3 -1 -1
-0 0 0 0 1 1 0 -1 -2 -2 -3 -3 -3 -2 -1 -2 -2 -2 -2 -2 -2 -2 -2 -3 -3 -3 -3
-1 -2 -2 -2 -2 -2 -2 -2 -3 -5 -5 -3 -3 -3 -3 -3 -3 -3 -3 -3 -3 -3 -3 -3 -3 -3 -4
-3 -4 -4 -4 -4 -4 -4 -4 -4 -5 -5 -4 -4 -5 -5 -5 -4 -4 -5 -4 -4 -4 -4 -3 -3 -3 -3
-5 -6 -6 -5 -5 -5 -5 -5 -5 -5 -5 -5 -5 -5 -6 -7 -7 -6 -6 -5 -5 -5 -4 -4 -3 -4 -3
-6 -6 -6 -6 -6 -6 -6 -6 -5 -6 -6 -5 -5 -5 -6 -6 -8 -7 -6 -6 -5 -5 -5 -4 -3 -3 -3
-6 -7 -7 -7 -7 -7 -7 -7 -8 -8 -7 -6 -5 -5 -6 -6 -6 -6 -6 -6 -6 -6 -5 -6 -3 -3 -3
-7 -7 -8 -8 -8 -8 -7 -8 -8 -8 -8 -8 -7 -6 -6 -6 -6 -6 -6 -6 -6 -6 -6 -7 -5 -3 -4
-8 -8 -8 -8 -8 -8 -8 -8 -8 -8 -8 -8 -8 -9 -7 -7 -6 -6 -7 -7 -8 -8 -7 -7 -8 -3 -4